| time (UTC) | temp C | wind direction | speed KPH | gust KPH | rain 1hr cm | rain 24hr cm | rain mn cm | humidity % | barometer mb |
| 20260508085443 | 33 | 0 | 3.2 | 6.4 | 0.00 | 0.00 | 0.00 | 61 | 993.8 |
| 20260508084943 | 33 | 22 | 0.0 | 9.7 | 0.00 | 0.00 | 0.00 | 61 | 993.8 |
| 20260508084443 | 33 | 0 | 14.5 | 14.5 | 0.00 | 0.00 | 0.00 | 61 | 994.1 |
| 20260508083943 | 33 | 0 | 0.0 | 9.7 | 0.00 | 0.00 | 0.00 | 61 | 993.9 |
| 20260508083445 | 33 | 90 | 3.2 | 6.4 | 0.00 | 0.00 | 0.00 | 60 | 994.0 |
| 20260508082943 | 34 | 22 | 1.6 | 12.9 | 0.00 | 0.00 | 0.00 | 60 | 993.7 |
| 20260508082443 | 34 | 0 | 6.4 | 12.9 | 0.00 | 0.00 | 0.00 | 59 | 993.8 |
| 20260508081443 | 35 | 0 | 3.2 | 14.5 | 0.00 | 0.00 | 0.00 | 57 | 994.0 |
| 20260508080945 | 35 | 22 | 9.7 | 22.5 | 0.00 | 0.00 | 0.00 | 56 | 993.5 |
| 20260508080443 | 35 | 180 | 4.8 | 17.7 | 0.00 | 0.00 | 0.00 | 55 | 993.6 |
| 20260508075443 | 37 | 0 | 19.3 | 20.9 | 0.00 | 0.00 | 0.00 | 54 | 993.6 |
| 20260508074943 | 37 | 22 | 0.0 | 6.4 | 0.00 | 0.00 | 0.00 | 52 | 993.5 |
| 20260508074444 | 37 | 22 | 6.4 | 6.4 | 0.00 | 0.00 | 0.00 | 52 | 993.0 |
| 20260508073442 | 37 | 22 | 0.0 | 12.9 | 0.00 | 0.00 | 0.00 | 51 | 992.9 |
| 20260508072442 | 38 | 22 | 0.0 | 12.9 | 0.00 | 0.00 | 0.00 | 50 | 993.3 |
| 20260508071944 | 38 | 90 | 0.0 | 3.2 | 0.00 | 0.00 | 0.00 | 50 | 993.3 |
| 20260508070942 | 38 | 22 | 0.0 | 8.0 | 0.00 | 0.00 | 0.00 | 50 | 993.5 |
| 20260508065942 | 38 | 22 | 3.2 | 8.0 | 0.00 | 0.00 | 0.00 | 50 | 993.4 |
| 20260508065444 | 38 | 22 | 0.0 | 0.0 | 0.00 | 0.00 | 0.00 | 50 | 993.4 |
| 20260508064442 | 38 | 22 | 1.6 | 8.0 | 0.00 | 0.00 | 0.00 | 50 | 993.8 |
| 20260508063442 | 38 | 90 | 0.0 | 4.8 | 0.00 | 0.00 | 0.00 | 51 | 993.8 |
| 20260508062944 | 37 | 22 | 3.2 | 3.2 | 0.00 | 0.00 | 0.00 | 51 | 993.8 |
| 20260508062442 | 38 | 22 | 0.0 | 4.8 | 0.00 | 0.00 | 0.00 | 51 | 994.1 |
| 20260508061442 | 38 | 22 | 0.0 | 3.2 | 0.00 | 0.00 | 0.00 | 52 | 994.3 |
| 20260508060942 | 38 | 22 | 8.0 | 8.0 | 0.00 | 0.00 | 0.00 | 51 | 994.3 |
| 20260508060443 | 3 | 90 | 0.0 | 3.2 | 0.00 | 0.00 | 0.00 | 52 | 994.5 |
| 20260508055442 | 37 | 90 | 3.2 | 9.7 | 0.00 | 0.00 | 0.00 | 53 | 994.7 |
| 20260508054842 | 37 | 90 | 0.0 | 3.2 | 0.00 | 0.00 | 0.00 | 53 | 995.1 |
| 20260508054341 | 37 | 90 | 4.8 | 4.8 | 0.00 | 0.00 | 0.00 | 53 | 995.3 |
| 20260508053843 | 37 | 0 | 3.2 | 8.0 | 0.00 | 0.00 | 0.00 | 53 | 995.4 |
| 20260508052841 | 37 | 0 | 0.0 | 11.3 | 0.00 | 0.00 | 0.00 | 54 | 995.6 |
| 20260508052341 | 37 | 0 | 0.0 | 4.8 | 0.00 | 0.00 | 0.00 | 54 | 995.7 |
| 20260508051841 | 37 | 0 | 0.0 | 8.0 | 0.00 | 0.00 | 0.00 | 54 | 995.9 |
| 20260508051343 | 37 | 292 | 3.2 | 6.4 | 0.00 | 0.00 | 0.00 | 55 | 995.9 |
| 20260508050841 | 37 | 0 | 6.4 | 6.4 | 0.00 | 0.00 | 0.00 | 56 | 995.8 |
| 20260508050341 | 37 | 0 | 3.2 | 4.8 | 0.00 | 0.00 | 0.00 | 56 | 996.0 |
| 20260508045841 | 36 | 0 | 0.0 | 3.2 | 0.00 | 0.00 | 0.00 | 56 | 996.1 |
| 20260508045341 | 36 | 90 | 0.0 | 16.1 | 0.00 | 0.00 | 0.00 | 57 | 996.2 |
| 20260508044743 | 36 | 292 | 0.0 | 4.8 | 0.00 | 0.00 | 0.00 | 57 | 996.3 |
| 20260508044241 | 36 | 292 | 0.0 | 6.4 | 0.00 | 0.00 | 0.00 | 57 | 996.5 |
| 20260508043741 | 36 | 22 | 0.0 | 4.8 | 0.00 | 0.00 | 0.00 | 57 | 996.6 |
| 20260508042741 | 36 | 22 | 0.0 | 24.1 | 0.00 | 0.00 | 0.00 | 58 | 996.9 |
| 20260508042242 | 36 | 22 | 0.0 | 3.2 | 0.00 | 0.00 | 0.00 | 58 | 996.7 |
| 20260508041741 | 36 | 90 | 0.0 | 1.6 | 0.00 | 0.00 | 0.00 | 59 | 997.0 |
| 20260508040740 | 36 | 90 | 0.0 | 4.8 | 0.00 | 0.00 | 0.00 | 59 | 997.1 |
| 20260508035742 | 35 | 90 | 0.0 | 0.0 | 0.00 | 0.00 | 0.00 | 60 | 997.1 |
| 20260508035240 | 35 | 22 | 0.0 | 3.2 | 0.00 | 0.00 | 0.00 | 60 | 997.2 |
| 20260508034640 | 35 | 22 | 0.0 | 0.0 | 0.00 | 0.00 | 0.00 | 60 | 997.3 |
| 20260508033640 | 35 | 0 | 4.8 | 4.8 | 0.00 | 0.00 | 0.00 | 62 | 997.4 |
| 20260508033142 | 35 | 22 | 3.2 | 8.0 | 0.00 | 0.00 | 0.00 | 62 | 997.2 |
| 20260508032640 | 35 | 292 | 0.0 | 3.2 | 0.00 | 0.00 | 0.00 | 63 | 997.4 |
| 20260508032141 | 34 | 292 | 0.0 | 0.0 | 0.00 | 0.00 | 0.00 | 63 | 997.3 |
| 20260508031140 | 33 | 90 | 0.0 | 3.2 | 0.00 | 0.00 | 0.00 | 63 | 997.5 |
| 20260508030642 | 33 | 22 | 0.0 | 6.4 | 0.00 | 0.00 | 0.00 | 64 | 997.6 |
| 20260508030140 | 33 | 22 | 0.0 | 3.2 | 0.00 | 0.00 | 0.00 | 64 | 997.5 |
| 20260508025640 | 33 | 90 | 0.0 | 0.0 | 0.00 | 0.00 | 0.00 | 65 | 997.5 |
| 20260508025144 | 33 | 90 | 0.0 | 4.8 | 0.00 | 0.00 | 0.00 | 65 | 997.7 |
| 20260508024540 | 33 | 22 | 0.0 | 3.2 | 0.00 | 0.00 | 0.00 | 66 | 997.6 |
| 20260508024041 | 33 | 22 | 0.0 | 6.4 | 0.00 | 0.00 | 0.00 | 67 | 997.7 |
| 20260508023540 | 33 | 90 | 0.0 | 0.0 | 0.00 | 0.00 | 0.00 | 67 | 997.8 |
| 20260508022539 | 32 | 0 | 0.0 | 3.2 | 0.00 | 0.00 | 0.00 | 68 | 997.8 |
| 20260508022040 | 32 | 0 | 0.0 | 0.0 | 0.00 | 0.00 | 0.00 | 69 | 997.8 |
| 20260508021541 | 32 | 22 | 0.0 | 3.2 | 0.00 | 0.00 | 0.00 | 69 | 997.8 |
| 20260508021039 | 32 | 22 | 0.0 | 0.0 | 0.00 | 0.00 | 0.00 | 69 | 997.8 |
| 20260508020039 | 32 | 22 | 0.0 | 0.0 | 0.00 | 0.00 | 0.00 | 70 | 997.8 |
| 20260508015539 | 32 | 22 | 0.0 | 3.2 | 0.00 | 0.00 | 0.00 | 71 | 997.7 |
| 20260508014941 | 31 | 292 | 0.0 | 0.0 | 0.00 | 0.00 | 0.00 | 72 | 997.7 |
| 20260508014439 | 31 | 0 | 0.0 | 0.0 | 0.00 | 0.00 | 0.00 | 72 | 997.7 |
| 20260508013939 | 31 | 22 | 0.0 | 0.0 | 0.00 | 0.00 | 0.00 | 73 | 997.6 |
| 20260508013439 | 1 | 90 | 0.0 | 0.0 | 0.00 | 0.00 | 0.00 | 74 | 997.6 |
| 20260508012939 | 31 | 90 | 0.0 | 0.0 | 0.00 | 0.00 | 0.00 | 74 | 997.4 |
| 20260508012441 | 31 | 22 | 0.0 | 0.0 | 0.00 | 0.00 | 0.00 | 74 | 997.4 |
| 20260508011939 | 31 | 90 | 0.0 | 0.0 | 0.00 | 0.00 | 0.00 | 74 | 997.2 |
| 20260508011439 | 31 | 90 | 0.0 | 0.0 | 0.00 | 0.00 | 0.00 | 74 | 997.3 |
| 20260508010939 | 31 | 90 | 0.0 | 0.0 | 0.00 | 0.00 | 0.00 | 75 | 997.3 |
| 20260508010439 | 31 | 22 | 0.0 | 3.2 | 0.00 | 0.00 | 0.00 | 75 | 997.3 |
| 20260508005940 | 31 | 90 | 1.6 | 1.6 | 0.00 | 0.00 | 0.00 | 75 | 997.1 |
| 20260508005438 | 31 | 90 | 0.0 | 3.2 | 0.00 | 0.00 | 0.00 | 75 | 997.0 |
| 20260508004838 | 30 | 22 | 0.0 | 0.0 | 0.00 | 0.00 | 0.00 | 76 | 996.9 |
| 20260508004338 | 30 | 90 | 0.0 | 0.0 | 0.00 | 0.00 | 0.00 | 76 | 996.8 |
| 20260508003838 | 30 | 0 | 0.0 | 0.0 | 0.00 | 0.00 | 0.00 | 76 | 996.6 |
| 20260508003340 | 30 | 0 | 0.0 | 3.2 | 0.00 | 0.00 | 0.00 | 76 | 996.6 |
| 20260508002838 | 30 | 22 | 0.0 | 0.0 | 0.00 | 0.00 | 0.00 | 76 | 996.6 |
| 20260508002338 | 30 | 22 | 0.0 | 0.0 | 0.00 | 0.00 | 0.00 | 77 | 996.5 |
| 20260508001838 | 30 | 22 | 0.0 | 0.0 | 0.00 | 0.00 | 0.00 | 77 | 996.5 |
| 20260508001338 | 30 | 90 | 0.0 | 0.0 | 0.00 | 0.00 | 0.00 | 78 | 996.4 |
| 20260508000840 | 30 | 90 | 0.0 | 0.0 | 0.00 | 0.00 | 0.00 | 78 | 996.4 |
| 20260508000338 | 29 | 22 | 0.0 | 0.0 | 0.00 | 0.00 | 0.00 | 78 | 996.4 |
| 20260507235838 | 29 | 22 | 0.0 | 0.0 | 0.00 | 0.00 | 0.00 | 79 | 996.3 |
| 20260507235338 | 28 | 90 | 0.0 | 0.0 | 0.00 | 0.00 | 0.00 | 80 | 996.2 |
| 20260507234738 | 28 | 22 | 0.0 | 0.0 | 0.00 | 0.00 | 0.00 | 80 | 996.1 |
| 20260507234240 | 28 | 22 | 0.0 | 0.0 | 0.00 | 0.00 | 0.00 | 80 | 996.3 |
| 20260507233738 | 28 | 22 | 0.0 | 0.0 | 0.00 | 0.00 | 0.00 | 80 | 996.3 |
| 20260507233238 | 28 | 90 | 0.0 | 0.0 | 0.00 | 0.00 | 0.00 | 81 | 996.2 |
| 20260507232738 | 28 | 22 | 0.0 | 0.0 | 0.00 | 0.00 | 0.00 | 81 | 996.2 |
| 20260507232238 | 28 | 90 | 0.0 | 0.0 | 0.00 | 0.00 | 0.00 | 81 | 996.1 |
| 20260507231739 | 28 | 90 | 0.0 | 0.0 | 0.00 | 0.00 | 0.00 | 81 | 996.1 |
| 20260507231238 | 28 | 90 | 0.0 | 0.0 | 0.00 | 0.00 | 0.00 | 81 | 996.2 |
| 20260507230737 | 27 | 22 | 0.0 | 0.0 | 0.00 | 0.00 | 0.00 | 81 | 996.1 |
| 20260507230237 | 27 | 90 | 0.0 | 0.0 | 0.00 | 0.00 | 0.00 | 80 | 996.1 |
| 20260507225737 | 27 | 90 | 0.0 | 0.0 | 0.00 | 0.00 | 0.00 | 80 | 996.1 |
| 20260507225239 | 28 | 90 | 0.0 | 0.0 | 0.00 | 0.00 | 0.00 | 80 | 996.0 |
| 20260507224737 | 28 | 22 | 0.0 | 0.0 | 0.00 | 0.00 | 0.00 | 80 | 995.9 |
| 20260507224237 | 28 | 90 | 0.0 | 0.0 | 0.00 | 0.00 | 0.00 | 80 | 996.0 |
| 20260507223737 | 28 | 22 | 0.0 | 0.0 | 0.00 | 0.00 | 0.00 | 80 | 996.0 |
| 20260507223237 | 28 | 90 | 0.0 | 0.0 | 0.00 | 0.00 | 0.00 | 80 | 995.9 |
| 20260507222739 | 28 | 90 | 0.0 | 0.0 | 0.00 | 0.00 | 0.00 | 81 | 995.9 |
| 20260507222237 | 28 | 90 | 0.0 | 0.0 | 0.00 | 0.00 | 0.00 | 81 | 995.7 |
| 20260507221237 | 27 | 90 | 0.0 | 0.0 | 0.00 | 0.00 | 0.00 | 81 | 995.6 |
| 20260507220737 | 27 | 90 | 0.0 | 0.0 | 0.00 | 0.00 | 0.00 | 81 | 995.5 |
| 20260507220239 | 27 | 90 | 0.0 | 0.0 | 0.00 | 0.00 | 0.00 | 81 | 995.5 |
| 20260507215737 | 27 | 90 | 0.0 | 0.0 | 0.00 | 0.00 | 0.00 | 81 | 995.5 |
| 20260507215237 | 27 | 90 | 0.0 | 0.0 | 0.00 | 0.00 | 0.00 | 81 | 995.4 |
| 20260507214737 | 27 | 90 | 0.0 | 0.0 | 0.00 | 0.00 | 0.00 | 81 | 995.4 |
| 20260507214237 | 27 | 90 | 0.0 | 0.0 | 0.00 | 0.00 | 0.00 | 81 | 995.3 |
| 20260507213738 | 28 | 22 | 0.0 | 0.0 | 0.00 | 0.00 | 0.00 | 81 | 995.2 |
| 20260507213237 | 28 | 90 | 0.0 | 0.0 | 0.00 | 0.00 | 0.00 | 81 | 995.1 |
| 20260507212736 | 28 | 22 | 0.0 | 0.0 | 0.00 | 0.00 | 0.00 | 81 | 995.0 |
| 20260507212237 | 28 | 22 | 0.0 | 0.0 | 0.00 | 0.00 | 0.00 | 81 | 995.0 |
| 20260507211736 | 28 | 90 | 0.0 | 0.0 | 0.00 | 0.00 | 0.00 | 81 | 995.0 |
| 20260507211238 | 27 | 90 | 0.0 | 0.0 | 0.00 | 0.00 | 0.00 | 81 | 995.1 |
| 20260507210736 | 27 | 22 | 0.0 | 3.2 | 0.00 | 0.00 | 0.00 | 81 | 995.0 |
| 20260507210236 | 28 | 90 | 0.0 | 1.6 | 0.00 | 0.00 | 0.00 | 81 | 995.0 |
| 20260507205736 | 28 | 22 | 0.0 | 3.2 | 0.00 | 0.00 | 0.00 | 81 | 995.0 |
| 20260507205236 | 28 | 90 | 0.0 | 3.2 | 0.00 | 0.00 | 0.00 | 81 | 995.0 |
| 20260507204738 | 28 | 90 | 0.0 | 0.0 | 0.00 | 0.00 | 0.00 | 81 | 995.2 |
| 20260507204236 | 28 | 90 | 0.0 | 0.0 | 0.00 | 0.00 | 0.00 | 81 | 995.2 |
| 20260507203236 | 28 | 90 | 0.0 | 0.0 | 0.00 | 0.00 | 0.00 | 81 | 995.2 |
| 20260507202736 | 28 | 90 | 0.0 | 0.0 | 0.00 | 0.00 | 0.00 | 81 | 995.2 |
| 20260507202238 | 28 | 90 | 0.0 | 0.0 | 0.00 | 0.00 | 0.00 | 81 | 995.2 |
| 20260507201736 | 28 | 90 | 0.0 | 1.6 | 0.00 | 0.00 | 0.00 | 81 | 995.2 |
| 20260507200736 | 28 | 22 | 0.0 | 0.0 | 0.00 | 0.00 | 0.00 | 82 | 995.2 |
| 20260507200236 | 28 | 90 | 0.0 | 0.0 | 0.00 | 0.00 | 0.00 | 82 | 995.1 |
| 20260507195737 | 28 | 90 | 0.0 | 0.0 | 0.00 | 0.00 | 0.00 | 82 | 995.1 |
| 20260507195235 | 28 | 90 | 0.0 | 0.0 | 0.00 | 0.00 | 0.00 | 82 | 995.0 |
| 20260507194235 | 28 | 90 | 0.0 | 0.0 | 0.00 | 0.00 | 0.00 | 82 | 995.4 |
| 20260507193735 | 28 | 90 | 0.0 | 4.8 | 0.00 | 0.00 | 0.00 | 82 | 995.2 |
| 20260507193237 | 28 | 90 | 0.0 | 0.0 | 0.00 | 0.00 | 0.00 | 81 | 995.3 |
| 20260507192735 | 28 | 22 | 0.0 | 0.0 | 0.00 | 0.00 | 0.00 | 81 | 995.5 |
| 20260507192235 | 28 | 22 | 0.0 | 0.0 | 0.00 | 0.00 | 0.00 | 81 | 995.5 |
| 20260507191235 | 28 | 90 | 0.0 | 8.0 | 0.00 | 0.00 | 0.00 | 81 | 995.6 |
| 20260507190737 | 28 | 90 | 3.2 | 3.2 | 0.00 | 0.00 | 0.00 | 81 | 995.6 |
| 20260507190235 | 28 | 90 | 0.0 | 4.8 | 0.00 | 0.00 | 0.00 | 80 | 995.6 |
| 20260507185735 | 28 | 90 | 0.0 | 1.6 | 0.00 | 0.00 | 0.00 | 80 | 995.6 |
| 20260507184735 | 28 | 22 | 0.0 | 0.0 | 0.00 | 0.00 | 0.00 | 80 | 995.8 |
| 20260507184237 | 28 | 0 | 0.0 | 0.0 | 0.00 | 0.00 | 0.00 | 80 | 995.8 |
| 20260507183735 | 28 | 90 | 0.0 | 1.6 | 0.00 | 0.00 | 0.00 | 80 | 995.9 |
| 20260507183235 | 28 | 22 | 0.0 | 0.0 | 0.00 | 0.00 | 0.00 | 80 | 996.1 |
| 20260507182735 | 28 | 90 | 0.0 | 3.2 | 0.00 | 0.00 | 0.00 | 80 | 996.2 |
| 20260507182236 | 28 | 22 | 0.0 | 0.0 | 0.00 | 0.00 | 0.00 | 80 | 996.2 |
| 20260507181736 | 28 | 90 | 0.0 | 4.8 | 0.00 | 0.00 | 0.00 | 80 | 996.2 |
| 20260507180734 | 28 | 22 | 0.0 | 0.0 | 0.00 | 0.00 | 0.00 | 79 | 996.3 |
| 20260507175734 | 28 | 90 | 0.0 | 0.0 | 0.00 | 0.00 | 0.00 | 79 | 996.3 |
| 20260507175236 | 28 | 90 | 0.0 | 0.0 | 0.00 | 0.00 | 0.00 | 79 | 996.3 |
| 20260507174234 | 28 | 22 | 0.0 | 0.0 | 0.00 | 0.00 | 0.00 | 78 | 996.3 |
| 20260507173234 | 28 | 90 | 0.0 | 0.0 | 0.00 | 0.00 | 0.00 | 78 | 996.3 |
| 20260507172736 | 28 | 90 | 0.0 | 0.0 | 0.00 | 0.00 | 0.00 | 78 | 996.3 |
| 20260507171734 | 28 | 90 | 0.0 | 0.0 | 0.00 | 0.00 | 0.00 | 78 | 996.5 |
| 20260507171234 | 28 | 90 | 0.0 | 0.0 | 0.00 | 0.00 | 0.00 | 78 | 996.6 |
| 20260507170734 | 28 | 90 | 0.0 | 0.0 | 0.00 | 0.00 | 0.00 | 78 | 996.6 |
| 20260507170236 | 28 | 22 | 0.0 | 0.0 | 0.00 | 0.00 | 0.00 | 78 | 996.7 |
| 20260507165734 | 28 | 90 | 0.0 | 0.0 | 0.00 | 0.00 | 0.00 | 78 | 996.8 |
| 20260507165234 | 28 | 90 | 0.0 | 0.0 | 0.00 | 0.00 | 0.00 | 78 | 996.8 |
| 20260507164234 | 28 | 90 | 0.0 | 0.0 | 0.00 | 0.00 | 0.00 | 78 | 996.9 |
| 20260507163735 | 28 | 90 | 0.0 | 0.0 | 0.00 | 0.00 | 0.00 | 78 | 996.9 |
| 20260507162733 | 28 | 90 | 0.0 | 0.0 | 0.00 | 0.00 | 0.00 | 77 | 997.0 |
| 20260507162234 | 28 | 22 | 0.0 | 0.0 | 0.00 | 0.00 | 0.00 | 77 | 997.1 |
| 20260507161733 | 28 | 90 | 0.0 | 0.0 | 0.00 | 0.00 | 0.00 | 77 | 997.2 |
| 20260507161235 | 28 | 90 | 0.0 | 0.0 | 0.00 | 0.00 | 0.00 | 77 | 997.2 |
| 20260507160233 | 28 | 90 | 0.0 | 4.8 | 0.00 | 0.00 | 0.00 | 77 | 997.4 |
| 20260507155233 | 28 | 22 | 0.0 | 0.0 | 0.00 | 0.00 | 0.00 | 77 | 997.5 |
| 20260507154735 | 28 | 90 | 0.0 | 0.0 | 0.00 | 0.00 | 0.00 | 77 | 997.5 |
| 20260507154233 | 28 | 0 | 0.0 | 0.0 | 0.00 | 0.00 | 0.00 | 76 | 997.7 |
| 20260507153233 | 28 | 90 | 0.0 | 6.4 | 0.00 | 0.00 | 0.00 | 76 | 997.6 |
| 20260507152733 | 28 | 90 | 0.0 | 4.8 | 0.00 | 0.00 | 0.00 | 77 | 997.5 |
| 20260507152235 | 28 | 22 | 0.0 | 1.6 | 0.00 | 0.00 | 0.00 | 76 | 997.5 |
| 20260507151733 | 28 | 22 | 0.0 | 3.2 | 0.00 | 0.00 | 0.00 | 76 | 997.7 |
| 20260507151233 | 28 | 90 | 0.0 | 0.0 | 0.00 | 0.00 | 0.00 | 76 | 997.8 |
| 20260507150233 | 28 | 22 | 0.0 | 0.0 | 0.00 | 0.00 | 0.00 | 76 | 997.7 |
| 20260507145734 | 28 | 45 | 0.0 | 3.2 | 0.00 | 0.00 | 0.00 | 76 | 997.8 |
| 20260507145233 | 29 | 0 | 0.0 | 3.2 | 0.00 | 0.00 | 0.00 | 75 | 997.8 |
| 20260507144732 | 29 | 90 | 0.0 | 4.8 | 0.00 | 0.00 | 0.00 | 75 | 997.8 |
| 20260507143732 | 29 | 22 | 3.2 | 8.0 | 0.00 | 0.00 | 0.00 | 75 | 997.5 |
| 20260507143234 | 29 | 0 | 0.0 | 3.2 | 0.00 | 0.00 | 0.00 | 75 | 997.5 |
| 20260507142732 | 29 | 22 | 0.0 | 3.2 | 0.00 | 0.00 | 0.00 | 75 | 997.6 |
| 20260507142233 | 29 | 22 | 0.0 | 0.0 | 0.00 | 0.00 | 0.00 | 75 | 997.6 |
| 20260507141232 | 29 | 22 | 0.0 | 3.2 | 0.00 | 0.00 | 0.00 | 75 | 997.3 |
| 20260507140734 | 29 | 22 | 4.8 | 4.8 | 0.00 | 0.00 | 0.00 | 74 | 997.1 |
| 20260507140232 | 29 | 90 | 0.0 | 6.4 | 0.00 | 0.00 | 0.00 | 74 | 997.0 |
| 20260507135232 | 29 | 22 | 0.0 | 3.2 | 0.00 | 0.00 | 0.00 | 74 | 996.7 |
| 20260507134732 | 30 | 90 | 8.0 | 8.0 | 0.00 | 0.00 | 0.00 | 73 | 996.6 |
| 20260507134234 | 30 | 90 | 0.0 | 0.0 | 0.00 | 0.00 | 0.00 | 73 | 996.4 |
| 20260507133732 | 30 | 22 | 0.0 | 0.0 | 0.00 | 0.00 | 0.00 | 73 | 996.3 |
| 20260507132732 | 30 | 22 | 0.0 | 0.0 | 0.00 | 0.00 | 0.00 | 72 | 995.8 |
| 20260507132233 | 30 | 22 | 0.0 | 0.0 | 0.00 | 0.00 | 0.00 | 72 | 995.8 |
| 20260507131733 | 30 | 90 | 0.0 | 0.0 | 0.00 | 0.00 | 0.00 | 72 | 995.8 |
| 20260507131232 | 30 | 90 | 0.0 | 3.2 | 0.00 | 0.00 | 0.00 | 72 | 995.6 |
| 20260507130231 | 30 | 0 | 0.0 | 1.6 | 0.00 | 0.00 | 0.00 | 72 | 995.2 |
| 20260507125731 | 30 | 22 | 0.0 | 0.0 | 0.00 | 0.00 | 0.00 | 72 | 995.3 |
| 20260507125233 | 30 | 22 | 0.0 | 3.2 | 0.00 | 0.00 | 0.00 | 72 | 995.0 |
| 20260507124731 | 30 | 22 | 0.0 | 3.2 | 0.00 | 0.00 | 0.00 | 72 | 995.1 |
| 20260507123731 | 30 | 0 | 0.0 | 0.0 | 0.00 | 0.00 | 0.00 | 72 | 994.9 |
| 20260507123231 | 30 | 90 | 0.0 | 0.0 | 0.00 | 0.00 | 0.00 | 72 | 994.9 |
| 20260507122733 | 30 | 22 | 0.0 | 4.8 | 0.00 | 0.00 | 0.00 | 71 | 994.7 |
| 20260507122232 | 30 | 90 | 0.0 | 0.0 | 0.00 | 0.00 | 0.00 | 72 | 994.7 |
| 20260507121822 | 30 | 90 | 0.0 | 0.0 | 0.00 | 0.00 | 0.00 | 71 | 994.7 |
| 20260507121811 | 30 | 90 | 0.0 | 3.2 | 0.00 | 0.00 | 0.00 | 71 | 994.7 |
| 20260507120900 | 30 | 90 | 1.6 | 3.2 | 0.00 | 0.00 | 0.00 | 71 | 994.6 |
| 20260507120400 | 30 | 292 | 0.0 | 3.2 | 0.00 | 0.00 | 0.00 | 70 | 994.5 |
| 20260507115900 | 30 | 22 | 0.0 | 0.0 | 0.00 | 0.00 | 0.00 | 70 | 994.5 |
| 20260507115401 | 30 | 90 | 0.0 | 3.2 | 0.00 | 0.00 | 0.00 | 70 | 994.5 |
| 20260507114900 | 30 | 90 | 0.0 | 8.0 | 0.00 | 0.00 | 0.00 | 69 | 994.4 |
| 20260507114400 | 31 | 90 | 6.4 | 11.3 | 0.00 | 0.00 | 0.00 | 69 | 994.4 |
| 20260507113859 | 31 | 22 | 4.8 | 4.8 | 0.00 | 0.00 | 0.00 | 69 | 994.5 |
| 20260507113359 | 31 | 0 | 0.0 | 0.0 | 0.00 | 0.00 | 0.00 | 69 | 994.4 |
| 20260507112901 | 31 | 22 | 0.0 | 12.9 | 0.00 | 0.00 | 0.00 | 69 | 994.2 |
| 20260507112359 | 31 | 90 | 0.0 | 6.4 | 0.00 | 0.00 | 0.00 | 68 | 994.1 |
| 20260507111359 | 31 | 90 | 3.2 | 9.7 | 0.00 | 0.00 | 0.00 | 68 | 993.9 |
| 20260507110859 | 31 | 90 | 0.0 | 12.9 | 0.00 | 0.00 | 0.00 | 68 | 993.9 |
| 20260507110401 | 31 | 22 | 3.2 | 3.2 | 0.00 | 0.00 | 0.00 | 68 | 994.0 |
| 20260507105359 | 31 | 0 | 0.0 | 9.7 | 0.00 | 0.00 | 0.00 | 67 | 994.1 |
| 20260507104859 | 31 | 22 | 16.1 | 16.1 | 0.00 | 0.00 | 0.00 | 67 | 994.0 |
| 20260507104359 | 31 | 90 | 3.2 | 4.8 | 0.00 | 0.00 | 0.00 | 67 | 993.8 |
| 20260507103901 | 32 | 90 | 3.2 | 3.2 | 0.00 | 0.00 | 0.00 | 66 | 993.8 |
| 20260507103359 | 32 | 90 | 3.2 | 3.2 | 0.00 | 0.00 | 0.00 | 66 | 993.7 |
| 20260507102359 | 32 | 90 | 1.6 | 1.6 | 0.00 | 0.00 | 0.00 | 66 | 993.8 |
| 20260507101859 | 1 | 90 | 0.0 | 0.0 | 0.00 | 0.00 | 0.00 | 66 | 993.8 |
| 20260507101400 | 32 | 22 | 0.0 | 3.2 | 0.00 | 0.00 | 0.00 | 65 | 993.7 |
| 20260507100859 | 32 | 90 | 0.0 | 3.2 | 0.00 | 0.00 | 0.00 | 65 | 993.6 |
| 20260507095858 | 32 | 90 | 0.0 | 0.0 | 0.00 | 0.00 | 0.00 | 64 | 993.3 |
| 20260507095358 | 32 | 22 | 0.0 | 8.0 | 0.00 | 0.00 | 0.00 | 64 | 993.2 |
| 20260507094900 | 32 | 22 | 9.7 | 14.5 | 0.00 | 0.00 | 0.00 | 62 | 993.4 |
| 20260507093858 | 33 | 22 | 6.4 | 24.1 | 0.00 | 0.00 | 0.00 | 61 | 993.7 |
| 20260507092858 | 33 | 22 | 3.2 | 11.3 | 0.00 | 0.00 | 0.00 | 62 | 993.5 |
| 20260507092400 | 33 | 90 | 4.8 | 6.4 | 0.00 | 0.00 | 0.00 | 62 | 993.6 |
| 20260507091358 | 33 | 22 | 0.0 | 12.9 | 0.00 | 0.00 | 0.00 | 62 | 993.5 |
| 20260507090358 | 34 | 0 | 0.0 | 8.0 | 0.00 | 0.00 | 0.00 | 61 | 993.1 |
| 20260507085900 | 35 | 22 | 6.4 | 16.1 | 0.00 | 0.00 | 0.00 | 60 | 993.3 |